PROBA 1 1 26958U 01049B 23341.11626568 .00003322 00000-0 26360-3 0 9992 2 26958 97.8957 309.4142 0065580 348.7092 11.2655 14.99549893204947 CUTE-1 1 27844U 03031E 23340.95509520 .00000480 00000-0 23233-3 0 9997 2 27844 98.6789 345.7158 0009549 351.6510 8.4507 14.22990927 60303 CUBESAT XI 4 1 27848U 03031J 23340.95686685 .00000394 00000-0 19610-3 0 9997 2 27848 98.6823 346.0613 0009762 7.2565 352.8752 14.22472011 60067 GENESIS 1 1 29252U 06029A 23340.50602369 .00013096 00000-0 43725-3 0 9993 2 29252 64.5182 95.9452 0003840 253.0196 107.0513 15.31318412960868 GENESIS 2 1 31789U 07028A 23340.55469891 .00012220 00000-0 41446-3 0 9993 2 31789 64.4913 140.5818 0045102 238.5285 121.1432 15.29891950907794 APRIZESAT 4 1 35684U 09041D 23341.07525830 .00000955 00000-0 12901-3 0 9998 2 35684 98.2653 17.3100 0046989 65.7775 294.8336 14.80816269774644 APRIZESAT 3 1 35686U 09041F 23341.17170148 .00002559 00000-0 26001-3 0 9997 2 35686 98.1061 85.1412 0068389 225.7609 133.7982 14.90059851778660 PROBA 2 1 36037U 09059B 23340.46912418 .00000483 00000-0 12580-3 0 9993 2 36037 98.2246 162.2432 0012271 251.3675 108.6190 14.53708757747262 APRIZESAT 5 1 37792U 11044E 23341.18078566 .00001152 00000-0 16665-3 0 9998 2 37792 98.2577 235.5718 0057678 87.4783 273.3027 14.77092616662471 APRIZESAT 6 1 37793U 11044F 23340.60912816 .00000950 00000-0 15099-3 0 9995 2 37793 98.3267 214.0258 0046237 150.7937 231.4159 14.73863963660953 PROBA V 1 39159U 13021A 23341.02234849 .00000113 00000-0 68000-4 0 9992 2 39159 98.3121 353.2843 0003468 332.5701 27.5294 14.23185101549781 CUSAT 1 1 39266U 13055B 23340.86574128 .00027341 00000-0 55029-3 0 9994 2 39266 80.9703 14.5460 0480101 24.9720 337.3894 14.74513699532605 APRIZESAT 7 1 39416U 13066A 23340.63110449 .00001836 00000-0 21126-3 0 9992 2 39416 97.6452 301.7749 0040238 29.4449 330.9022 14.86356806543770 APRIZESAT 8 1 39425U 13066K 23340.85138136 .00001287 00000-0 16021-3 0 9997 2 39425 97.7036 294.7792 0051533 80.1380 280.5647 14.83260672542578 BUGSAT 1 1 40014U 14033E 23340.88931040 .00004381 00000-0 33949-3 0 9992 2 40014 98.1533 7.8626 0036741 59.0061 301.4762 15.01459779516611 SAUDISAT 4 1 40016U 14033G 23340.49039983 .00001266 00000-0 18523-3 0 9996 2 40016 97.6473 151.1771 0046866 196.5095 163.4592 14.76591030509614 TABLETSAT AURORA 1 40017U 14033H 23341.14942539 .00004105 00000-0 33137-3 0 9993 2 40017 98.1415 350.1818 0019284 85.8444 274.4981 15.00314982516016 APRIZESAT 9 1 40018U 14033J 23340.95136368 .00000928 00000-0 15273-3 0 9997 2 40018 97.7749 129.8568 0068362 287.9984 71.3781 14.71339042507787 APRIZESAT 10 1 40019U 14033K 23340.97715780 .00000705 00000-0 12451-3 0 9999 2 40019 97.8399 121.0258 0081920 342.1818 17.6518 14.68307976506827 AISAT 1 40054U 14034B 23341.15472869 .00004970 00000-0 57926-3 0 9992 2 40054 98.3535 181.6705 0011361 31.6612 328.5283 14.85676487509121 CANX-4 1 40055U 14034C 23341.06259224 .00001374 00000-0 20172-3 0 9999 2 40055 98.3928 162.8798 0014833 87.3250 272.9657 14.77201525508061 CANX-5 1 40056U 14034D 23341.06882025 .00001376 00000-0 20185-3 0 9997 2 40056 98.3929 162.8807 0014825 87.2283 273.0623 14.77208192508062 TDS 1 1 40076U 14037H 23340.30550424 .00005901 00000-0 60473-3 0 9995 2 40076 98.3317 246.6129 0007287 119.4420 240.7525 14.90863850509525 TIANTUO 2 1 40144U 14053B 23341.17178724 .00015024 00000-0 26013-3 0 9993 2 40144 97.1454 57.7173 0009162 47.5152 312.6874 15.50966377518001 TECHNOSAT 1 42829U 17042E 23341.10385145 .00002142 00000-0 20133-3 0 9990 2 42829 97.3793 168.2844 0013407 10.5833 349.5668 14.94832174348316 FLYING LAPTOP 1 42831U 17042G 23341.15439090 .00002188 00000-0 21038-3 0 9992 2 42831 97.3813 168.4954 0013579 12.5005 347.6550 14.93898324348305